Home   Weather   Nitra   Past weeks
Flag for Slovakia

Past Weather in Nitra, Slovakia — Yesterday and Last 2 Weeks

Now
29 °F

Chilly.


Feels Like: 26 °F
Forecast: 38 / 27 °F
Wind: 3 mph from Southeast

Location: Nitra

Current Time: Dec 6, 2019 at 4:08:47 am

Latest Report: Dec 6, 2019 at 3:00 am


Visibility: N/A

Pressure: 30.32 "Hg

Humidity: 91%

Dew Point: 27 °F

Location of NitraLocation

Past Weather in Nitra — Graph

°F

Nitra Temperature Yesterday

Maximum temperature yesterday: 30 °F (at 10:00 am)
Minimum temperature yesterday: 28 °F (at 12:00 am)
Average temperature yesterday: 29 °F

High & Low Weather Summary for the Past Weeks

 TemperatureHumidityPressure
High53 °F (Nov 25, 2:00 pm)100% (Nov 21, 11:00 am)30.47 "Hg (Nov 21, 11:00 am)
Low21 °F (Dec 1, 7:00 am)51% (Nov 30, 2:00 pm)29.59 "Hg (Nov 28, 12:00 pm)
Average40 °F85%30.04 "Hg
* Reported Nov 21 3:00 am — Dec 6 3:00 am, Nitra. Weather by CustomWeather, © 2019

Note: Actual official high and low records may vary slightly from our data, if they occured in-between our weather recording intervals... More about our weather records

Nitra Weather History for the Previous 24 Hours

Scroll right to see more
 ConditionsComfort  
Time TempWeatherWind HumidityBarometerVisibility
3:00 am
Fri, Dec 6
29 °FChilly.3 mph91%30.32 "HgN/A
2:00 am29 °FChilly.5 mph90%30.33 "HgN/A
1:00 am29 °FChilly.5 mph91%30.34 "HgN/A
12:00 am29 °FChilly.5 mph94%30.34 "HgN/A
11:00 pm
Thu, Dec 5
29 °FChilly.5 mph95%30.36 "HgN/A
10:00 pm29 °FChilly.5 mph95%30.37 "HgN/A
9:00 pm29 °FLight freezing rain. Low clouds.6 mph94%30.37 "Hg3 mi
8:00 pm29 °FLight freezing rain. Low clouds.6 mph95%30.38 "Hg3 mi
7:00 pm29 °FLight freezing rain. Low clouds.6 mph96%30.39 "Hg3 mi
6:00 pm29 °FLight freezing rain. Low clouds.6 mph95%30.40 "Hg3 mi
5:00 pm29 °FSnow flurries. Low clouds.6 mph93%30.39 "Hg4 mi
4:00 pm30 °FFog.6 mph92%30.39 "Hg5 mi
3:00 pm30 °FLow clouds.7 mph91%30.39 "Hg6 mi
2:00 pm30 °FLow clouds.7 mph90%30.41 "Hg6 mi
1:00 pm30 °FLow clouds.7 mph89%30.42 "Hg6 mi
12:00 pm30 °FFog.7 mph89%30.43 "Hg6 mi
11:00 am30 °FFog.6 mph89%30.44 "Hg6 mi
10:00 am30 °FFog.7 mph89%30.44 "Hg5 mi
9:00 am30 °FFog.8 mph91%30.44 "Hg5 mi
8:00 am29 °FFog.8 mph91%30.43 "Hg3 mi
7:00 am30 °FFog.8 mph90%30.43 "Hg4 mi
6:00 am29 °FFog.8 mph89%30.43 "Hg6 mi
5:00 am29 °FChilly.7 mph89%30.44 "HgN/A
4:00 am29 °FChilly.8 mph89%30.44 "HgN/A
Weather by CustomWeather, © 2019

See weather overview

Advertising